Location: Bilbao
(43.2500°N, 2.9667°W)
Time: 13:04:35
(UTC+01:00)

ISS - Visible Passes

Search period start: 11 December 2019 00:00
Search period end: 21 December 2019 00:00
Orbit: 411 x 421 km, 51.6° (Epoch: 11 December)

Date Brightness Start Highest point End Pass type
(mag) Time Alt. Az. Time Alt. Az. Time Alt. Az.
11 Dec -1.1 19:13:24 10° W 19:15:59 20° SW 19:18:32 10° S visible
12 Dec -1.9 18:24:34 10° WNW 18:27:39 34° SW 18:30:43 10° SSE visible
14 Dec -0.3 18:25:26 10° WSW 18:27:05 13° SW 18:28:45 10° SSW visible
19 Dec -0.4 07:54:48 10° SSE 07:56:35 14° SE 07:58:22 10° E visible
